Regional Weather Roundup
Issued by NWS Sterling, VA

Home | Current Version | Previous Version | Graphics & Text | Print | Product List | Glossary On
Versions: 1 2 3 4 5 6 7 8 9 10 11 12 13 14 15 16 17 18 19 20 21 22 23 24 25 26 27 28 29 30 31 32 33 34 35 36 37 38 39 40 41 42 43 44 45 46 47 48 49 50
000
ASUS41 KLWX 271110
RWRLWX

REGIONAL WEATHER ROUNDUP
NATIONAL WEATHER SERVICE BALTIMORE MD/WASHINGTON DC
600 AM EST FRI FEB 27 2015

Note: "FAIR" indicates few or no clouds below 12,000 feet
with no significant weather and/or obstructions to visibility.
 TC=TEMPERATURE CELSIUS

 * =Non NWS site. Station does not report precipitation (e.g. rain,
    snow, etc.), thunder, or fog.

DCZ001-MDZ009-015-VAZ040>042-051-053>054-271200-
WASHINGTON METRO

CITY           SKY/WX    TMP DP  RH WIND       PRES   REMARKS
WASHINGTON NAT FLURRIES  34  23  64 NW6       30.28R
DULLES         CLOUDY    29  20  69 N7        30.27R
ANDREWS AFB    MOCLDY    30  23  75 NW3       30.26R
FT BELVOIR     MOCLDY    32  25  74 NW2       30.28R
QUANTICO       CLOUDY    32  25  75 VRB3      30.29R
COLLEGE PARK*  CLOUDY    30  27  86 CALM      30.27R
LEESBURG*      CLOUDY    30  23  74 N8        30.29R WCI  23
MANASSAS*      CLOUDY    30  27  86 N9        30.28R WCI  22
GAITHERSBURG*  MOCLDY    27  18  69 NW5       30.30R

$$

MDZ006>007-011-014-271200-
BALTIMORE METRO

CITY           SKY/WX    TMP DP  RH WIND       PRES   REMARKS
BWI AIRPORT    CLOUDY    27  22  81 CALM      30.27R
MD SCIENCE CTR   N/A     30  21  69 MISG      30.26R
MARTIN STATE   PTCLDY    30  23  74 N3        30.30R
ANNAPOLIS      CLOUDY    28  24  85 NW3       30.27R
FORT MEADE*    CLOUDY    27  23  86 CALM      30.29R

$$

MDZ012-015-019>023-271200-
MARYLAND EASTERN SHORE

CITY           SKY/WX    TMP DP  RH WIND       PRES   REMARKS
OCEAN CITY     CLOUDY    19  16  88 MISG      30.26R FOG
SALISBURY      CLOUDY    24  19  81 CALM      30.26R
BAY BRIDGE AP*   N/A     30  23  74 N3        30.28R
CAMBRIDGE*     MOCLDY    28  25  86 CALM      30.26R
EASTON*        CLOUDY    28  27  93 CALM      30.30R

$$

MDZ017>025-271200-
SOUTHERN MARYLAND

CITY           SKY/WX    TMP DP  RH WIND       PRES   REMARKS
PATUXENT RIVER CLOUDY    27  23  85 CALM      30.27R
ST INIGOES     CLOUDY    27  22  81 CALM      30.26R
LEONARDTOWN*   CLOUDY    28  25  86 CALM      30.28R

$$

MDZ003>005-271200-
NORTH CENTRAL MARYLAND

CITY           SKY/WX    TMP DP  RH WIND       PRES   REMARKS
FREDERICK*     NOT AVBL
HAGERSTOWN APT PTCLDY    22  11  62 NW7       30.27R
WESTMINSTER*   LGT SNOW  25  19  80 N3        30.24R

$$

MDZ501>502-271200-
WESTERN MARYLAND

CITY           SKY/WX    TMP DP  RH WIND       PRES   REMARKS
OAKLAND*       CLOUDY     3   3 100 NW6       30.12R FOG
CUMBERLAND*    CLEAR     18   5  57 NW6       30.35R

$$

VAZ025>031-271200-
SHENANDOAH VALLEY

CITY           SKY/WX    TMP DP  RH WIND       PRES   REMARKS
WINCHESTER*    CLOUDY    27   9  46 NW15      30.26R WCI  15
FRONT ROYAL*   PTSUNNY   25  18  74 NE5       30.25R
LURAY*         FAIR      28  23  80 NE7       30.23R
NEW MARKET*    PTSUNNY   23  16  75 NE5       30.22R
STAUNTON*      MOCLDY    23  17  77 CALM      30.23R
WAYNESBORO*    FAIR      24  15  70 NW3       30.19R

$$

WVZ021-048>050-054>055-271200-
EASTERN WEST VIRGINIA PANHANDLE

CITY           SKY/WX    TMP DP  RH WIND       PRES   REMARKS
MARTINSBURG    PTCLDY    24  10  55 N7        30.29R
PETERSBURG*    NOT AVBL

$$

VAZ036>039-050-271200-
CENTRAL FOOTHILLS

CITY           SKY/WX    TMP DP  RH WIND       PRES   REMARKS
CHARLOTTESVILL CLEAR     27  23  85 VRB3      30.23R
CULPEPER*      MOCLDY    30  21  69 N8        30.26R WCI  23
ORANGE*        CLOUDY    28  27  93 CALM      30.26R
GORDONSVILLE*  FAIR      23  21  95 CALM      30.24R FOG
WARRENTON*     CLOUDY    32  26  78 N7        30.26R

$$

VAZ055>057-271200-
NORTH AND CENTRAL PIEDMONT

CITY           SKY/WX    TMP DP  RH WIND       PRES   REMARKS
FREDERICKSBRG* CLOUDY    32  29  90 CALM      30.26R
STAFFORD*      CLOUDY    30  30 100 N6        30.30R

$$

NCZ024-NYZ072-PAZ021-071-VAZ022-071-271200-
OTHER REGIONAL OBSERVATIONS

CITY           SKY/WX    TMP DP  RH WIND       PRES   REMARKS
NEW YORK CITY  MOCLDY    19   3  49 VRB5      30.31R
PHILADELPHIA   LGT SNOW  24  15  68 N9        30.31R WCI  14
PITTSBURGH     FLURRIES   4   1  88 NW7       30.35R
ROANOKE        PTCLDY    28  15  58 NW8       30.26R WCI  20
RICHMOND       CLOUDY    30  28  92 CALM      30.24R FOG
RALEIGH        PTCLDY    24  21  88 CALM      30.26R FOG

$$

ANZ530>537-271200-
MARINE OBSERVATIONS

STATION/POSITION TIME  TEMP    WIND        PRES
                       AIR SEA DIR/SP/G
                 (UTC) (F)     (DEG/KT/KT) (MB)
THOMAS PT LIGHT  1100   30 31  350/  6/  7 1026.2R
BALT KEY BRIDGE  1000   29      40/  2/  3 1024.5R
COVE POINT       1000   28     190/  2/  2 1023.9R
LEWISETTA        1000   27 32              1024.1R
SOLOMONS ISLAND  1000      32                N/A

$$




USA.gov is the U.S. government's official web portal to all federal, state and local government web resources and services.